[[{"header":{"parameterUnit":"m.s-1","parameterCategory":1,"la1":30.2991,"la2":30.254,"lo1":-89.0895,"lo2":-89.0444,"dy":0.0017,"dx":0.0017,"nx":28,"ny":28,"refTime":"2026-01-07T03:00:00:Z","depth":0,"parameterNumber":2,"parameterNumberName":"U-component_of_WINDS"},"data":[0,0,0,0,0,0,0,0,0,0,0,0,0,0,0,0,0,0,0,0,0,0,0,0,0,0,0,0,0,0,0,0,0,0,0,0,0,0,0,0,0,0,0,0,0,0,0,0,0,0,0,0,0,0,0,0,0,0,-1.5566,-1.5564,0,-1.5459,-1.5458,-1.5457,-1.5401,-1.5401,-1.5401,-1.5401,-1.5286,-1.5283,-1.528,0,0,0,0,0,0,0,0,0,0,0,0,0,-1.5714,-1.5711,-1.5566,-1.5564,-1.5563,-1.5459,-1.5458,-1.5457,-1.5401,-1.5401,-1.5401,-1.5401,-1.5287,-1.5283,-1.528,0,0,0,0,0,0,0,0,0,0,0,0,0,-1.5632,-1.571,-1.5566,-1.5523,-1.5518,-1.546,-1.5458,-1.5456,-1.5401,-1.5401,-1.5401,-1.5401,-1.5288,-1.5284,-1.5279,-1.5253,0,0,-1.5265,-1.5263,0,0,0,0,0,0,0,0,-1.5637,-1.5627,-1.5531,-1.5526,-1.5521,-1.5444,-1.5468,-1.5388,-1.5401,-1.5446,-1.5401,-1.5401,-1.5338,-1.5329,-1.5309,-1.5248,-1.5243,-1.5265,-1.5262,-1.526,-1.5259,0,0,0,0,0,0,0,-1.5643,-1.5631,-1.5523,-1.5529,-1.5523,-1.5507,-1.5495,-1.5452,-1.5393,-1.5442,-1.5438,-1.5426,-1.5335,-1.5314,-1.5306,-1.5241,-1.5265,-1.5261,-1.5258,-1.5256,-1.5149,-1.5149,0,0,0,0,0,0,-1.5656,-1.5636,-1.5527,-1.552,-1.558,-1.5504,-1.5491,-1.5468,-1.5394,-1.5382,-1.5426,-1.5424,-1.5322,-1.5312,-1.5302,-1.5265,-1.526,-1.5256,-1.5253,-1.515,-1.5149,-1.5149,0,0,0,0,0,0,-1.566,-1.5647,-1.5531,-1.5577,-1.5561,-1.5502,-1.5476,-1.5466,-1.5445,-1.5382,-1.5371,-1.5416,-1.5321,-1.5308,-1.5265,-1.526,-1.5254,-1.525,-1.515,-1.515,-1.5149,-1.5192,0,0,0,0,0,0,-1.5664,-1.5649,-1.564,-1.5577,-1.5559,-1.5499,-1.5476,-1.5464,-1.5438,-1.5434,-1.5369,-1.5358,-1.532,-1.5273,-1.5261,-1.5254,-1.5246,-1.515,-1.515,-1.5149,-1.5191,-1.5193,-1.5195,0,0,0,0,0,-1.567,-1.5655,-1.564,-1.5627,-1.5547,-1.5499,-1.5488,-1.5446,-1.5438,-1.5427,-1.5387,-1.536,-1.5263,-1.5269,-1.5255,-1.5247,-1.515,-1.515,-1.5149,-1.519,-1.5193,-1.5195,0,0,0,0,0,0,-1.5717,-1.5646,-1.5628,-1.5594,-1.5553,-1.549,-1.5475,-1.5451,-1.5409,-1.5407,-1.5355,-1.534,-1.5302,-1.527,-1.5278,-1.5216,-1.5203,-1.5201,-1.5239,-1.5241,-1.5243,-1.5251,-1.5243,0,0,0,0,0,-1.5723,-1.5692,-1.5631,-1.5606,-1.5587,-1.5535,-1.5512,-1.5483,-1.5438,-1.542,-1.5376,-1.5331,-1.5289,-1.5263,-1.5222,-1.5186,-1.5169,-1.5173,-1.5175,-1.5177,-1.5175,-1.5151,-1.5151,-1.5148,-1.5148,-1.5148,0,0,-1.5736,-1.5694,-1.5677,-1.5615,-1.558,-1.5546,-1.552,-1.5486,-1.546,-1.5414,-1.5371,-1.5337,-1.5283,-1.5243,-1.5223,-1.5215,-1.5172,-1.5177,-1.5179,-1.5176,-1.5151,-1.5151,-1.5152,-1.5148,-1.5148,-1.5148,0,0,-1.5742,-1.5708,-1.5683,-1.5648,-1.5596,-1.5561,-1.5555,-1.5495,-1.5472,-1.5428,-1.5392,-1.5359,-1.529,-1.5252,-1.5224,-1.5215,-1.5188,-1.5203,-1.5214,-1.5192,-1.5192,-1.5192,-1.5187,-1.5186,-1.5201,-1.5201,-1.5201,0,-1.5764,-1.5715,-1.5672,-1.564,-1.5613,-1.5571,-1.5544,-1.5511,-1.5448,-1.5429,-1.5421,-1.5333,-1.5293,-1.5243,-1.5241,-1.522,-1.5209,-1.521,-1.5196,-1.5195,-1.5194,-1.5189,-1.5187,-1.5203,-1.5203,-1.5202,-1.5202,0,-1.5743,-1.5709,-1.5694,-1.5636,-1.5607,-1.5577,-1.5528,-1.5503,-1.5477,-1.5442,-1.5396,-1.5348,-1.5296,-1.5281,-1.5255,-1.5226,-1.5223,-1.5206,-1.5192,-1.5198,-1.5191,-1.5189,-1.5206,-1.5205,-1.5204,-1.5204,0,0,-1.5776,-1.5694,-1.569,-1.5662,-1.5601,-1.5572,-1.5539,-1.549,-1.5469,-1.5426,-1.5395,-1.5337,-1.5321,-1.5289,-1.5257,-1.5238,-1.5231,-1.5223,-1.5221,-1.5225,-1.5195,-1.5207,-1.5206,-1.5214,-1.5213,-1.5213,-1.5199,0,-1.5772,-1.5714,-1.5675,-1.5631,-1.5598,-1.5557,-1.5528,-1.5486,-1.5452,-1.5417,-1.5378,-1.5337,-1.532,-1.53,-1.5279,-1.5237,-1.5224,-1.5237,-1.5182,-1.5181,-1.5197,-1.5203,-1.5216,-1.5205,-1.5196,-1.5196,-1.5196,0,-1.576,-1.572,-1.5674,-1.5616,-1.56,-1.5575,-1.5526,-1.5493,-1.5443,-1.542,-1.5384,-1.5352,-1.5313,-1.5303,-1.5247,-1.5256,-1.5231,-1.5207,-1.5205,-1.5198,-1.5188,-1.5194,-1.5201,-1.5199,-1.5192,-1.5192,-1.5192,0,-1.5787,-1.5722,-1.5685,-1.5663,-1.5594,-1.5577,-1.5547,-1.5497,-1.547,-1.5425,-1.5406,-1.5358,-1.5331,-1.5293,-1.5247,-1.5244,-1.5194,-1.5181,-1.5172,-1.5173,-1.5162,-1.5164,-1.5165,-1.5148,-1.5148,-1.5148,-1.5148,0,-1.5787,-1.576,-1.5696,-1.5674,-1.5641,-1.5595,-1.5563,-1.5529,-1.5485,-1.5453,-1.5414,-1.5384,-1.5327,-1.5289,-1.5252,-1.521,-1.5198,-1.5177,-1.5167,-1.518,-1.5182,-1.5162,-1.5161,-1.5148,-1.5148,-1.5148,-1.5148,0,-1.5811,-1.5768,-1.5725,-1.5664,-1.5647,-1.5626,-1.5572,-1.5547,-1.5511,-1.5471,-1.5459,-1.5401,-1.5355,-1.5306,-1.5242,-1.5217,-1.5176,-1.5164,-1.5194,-1.5188,-1.5181,-1.5182,-1.5168,-1.5163,-1.5152,-1.5152,-1.5152,0,-1.5813,-1.5792,-1.5728,-1.5705,-1.5677,-1.564,-1.5612,-1.5565,-1.5537,-1.5478,-1.5459,-1.541,-1.5369,-1.5296,-1.5247,-1.5197,-1.5182,-1.5181,-1.5174,-1.5187,-1.518,-1.5182,-1.5179,-1.5183,-1.5183,-1.5183,-1.5183,0,-1.5821,-1.5801,-1.5763,-1.5718,-1.5686,-1.5647,-1.5607,-1.5589,-1.5533,-1.5503,-1.5457,-1.5424,-1.536,-1.5311,-1.5255,-1.5221,-1.5192,-1.5186,-1.5181,-1.5193,-1.5211,-1.52,-1.5199,-1.5186,-1.5186,-1.5186,-1.5186,-1.5186,-1.5833,-1.5812,-1.5764,-1.5723,-1.5688,-1.5651,-1.5624,-1.5585,-1.5546,-1.5492,-1.5465,-1.5418,-1.5366,-1.5289,-1.5256,-1.5216,-1.5207,-1.52,-1.5198,-1.5197,-1.52,-1.5218,-1.5206,-1.5205,-1.5205,-1.5205,-1.5205,0,-1.5838,-1.5805,-1.5768,-1.5714,-1.5681,-1.5659,-1.5612,-1.5585,-1.5545,-1.5501,-1.5461,-1.5406,-1.5358,-1.5305,-1.5253,-1.5232,-1.5217,-1.5219,-1.522,-1.5212,-1.5211,-1.522,-1.5232,-1.5232,-1.5232,-1.5232,-1.5232,-1.5232,-1.5837,-1.5799,-1.5772,-1.5716,-1.5682,-1.5637,-1.5612,-1.5577,-1.5541,-1.5483,-1.5443,-1.541,-1.5361,-1.5306,-1.526,-1.5245,-1.5227,-1.5233,-1.5215,-1.5214,-1.5212,-1.521,-1.5219,-1.523,-1.523,-1.5219,-1.5219,-1.5219]},{"header":{"parameterUnit":"m.s-1","parameterCategory":1,"la1":30.2991,"la2":30.254,"lo1":-89.0895,"lo2":-89.0444,"dy":0.0017,"dx":0.0017,"nx":28,"ny":28,"refTime":"2026-01-07T03:00:00:Z","depth":0,"parameterNumber":3,"parameterNumberName":"V-component_of_WINDS"},"data":[0,0,0,0,0,0,0,0,0,0,0,0,0,0,0,0,0,0,0,0,0,0,0,0,0,0,0,0,0,0,0,0,0,0,0,0,0,0,0,0,0,0,0,0,0,0,0,0,0,0,0,0,0,0,0,0,0,0,2.3141,2.3141,0,2.3156,2.3156,2.3156,2.311,2.3108,2.3107,2.3105,2.3119,2.312,2.3122,0,0,0,0,0,0,0,0,0,0,0,0,0,2.3069,2.3071,2.3141,2.3141,2.3141,2.3156,2.3156,2.3156,2.311,2.3108,2.3106,2.3105,2.3118,2.312,2.3122,0,0,0,0,0,0,0,0,0,0,0,0,0,2.3094,2.3071,2.3141,2.312,2.3118,2.3156,2.3156,2.3156,2.311,2.3108,2.3106,2.3104,2.3118,2.312,2.3122,2.3181,0,0,2.313,2.3131,0,0,0,0,0,0,0,0,2.3093,2.3097,2.3123,2.3121,2.3119,2.3129,2.3136,2.3164,2.3111,2.3113,2.3105,2.3103,2.3124,2.3126,2.3133,2.3181,2.3182,2.313,2.3132,2.3133,2.3134,0,0,0,0,0,0,0,2.3091,2.3096,2.3147,2.3123,2.3121,2.3109,2.311,2.3141,2.313,2.3113,2.3109,2.3112,2.3122,2.3131,2.3133,2.3182,2.313,2.3133,2.3134,2.3135,2.328,2.3282,0,0,0,0,0,0,2.3092,2.3095,2.3146,2.3147,2.3101,2.3112,2.3113,2.3128,2.313,2.3128,2.3114,2.311,2.3127,2.313,2.3133,2.3203,2.3133,2.3135,2.3137,2.3278,2.3281,2.3283,0,0,0,0,0,0,2.3091,2.3097,2.3145,2.312,2.3125,2.3115,2.3132,2.3129,2.3138,2.313,2.3128,2.3124,2.3126,2.313,2.317,2.3203,2.3136,2.3139,2.3275,2.3279,2.3282,2.3342,0,0,0,0,0,0,2.3089,2.3097,2.312,2.3121,2.3127,2.3182,2.3134,2.3131,2.3142,2.3137,2.314,2.3138,2.3124,2.3166,2.3172,2.3205,2.3141,2.3272,2.3277,2.3281,2.3337,2.3347,2.3356,0,0,0,0,0,2.3087,2.3135,2.3121,2.3127,2.3155,2.3184,2.3188,2.3172,2.3145,2.3168,2.3163,2.3138,2.3198,2.3171,2.3177,2.3211,2.327,2.3275,2.3281,2.3333,2.3345,2.3356,0,0,0,0,0,0,2.3136,2.3135,2.3119,2.3169,2.3178,2.3177,2.3204,2.3185,2.32,2.3195,2.3173,2.3174,2.3218,2.3218,2.3188,2.3268,2.3229,2.3236,2.3267,2.3279,2.3288,2.3287,2.3143,0,0,0,0,0,2.3154,2.3179,2.3175,2.322,2.3225,2.3214,2.3226,2.3213,2.3221,2.3224,2.3222,2.3229,2.325,2.3264,2.3282,2.3336,2.3337,2.3363,2.3372,2.338,2.3387,2.3417,2.3429,2.3301,2.3301,2.33,0,0,2.3189,2.3191,2.3208,2.323,2.3235,2.3261,2.3217,2.3246,2.3266,2.3228,2.3266,2.3265,2.3272,2.332,2.3341,2.3321,2.3422,2.3387,2.3393,2.3395,2.3423,2.3436,2.3446,2.3304,2.3304,2.3303,0,0,2.3266,2.327,2.3309,2.3315,2.3323,2.3316,2.3325,2.3327,2.3326,2.3364,2.3337,2.3358,2.3394,2.3401,2.3409,2.349,2.3468,2.3496,2.3546,2.3576,2.3586,2.3595,2.3625,2.3636,2.3503,2.3503,2.3503,0,2.3309,2.3348,2.333,2.3363,2.3374,2.3341,2.338,2.3386,2.34,2.3408,2.3386,2.3431,2.3433,2.3483,2.3503,2.351,2.3521,2.3497,2.3586,2.3594,2.3602,2.3632,2.3643,2.3506,2.3506,2.3506,2.3505,0,2.3401,2.3428,2.3458,2.3474,2.3488,2.3523,2.3511,2.3527,2.3513,2.3508,2.3548,2.3549,2.3568,2.3579,2.3564,2.3627,2.3615,2.3589,2.355,2.3619,2.3646,2.3656,2.3511,2.351,2.3509,2.3508,0,0,2.3511,2.3517,2.3529,2.3536,2.3543,2.3564,2.3598,2.3617,2.3633,2.3643,2.3671,2.3702,2.368,2.3689,2.3675,2.3701,2.3767,2.3672,2.3672,2.3691,2.3838,2.3858,2.3871,2.3752,2.3754,2.3756,2.3838,0,2.3589,2.3649,2.3634,2.3693,2.3719,2.3689,2.3718,2.3726,2.3722,2.3743,2.3738,2.3761,2.3728,2.3734,2.3758,2.3754,2.3797,2.3748,2.3779,2.378,2.378,2.3885,2.3906,2.3984,2.3848,2.385,2.3851,0,2.3689,2.3705,2.3767,2.3771,2.3781,2.3809,2.3826,2.3846,2.3854,2.3849,2.386,2.3842,2.3875,2.3835,2.388,2.3848,2.3859,2.3859,2.3862,2.3865,2.3821,2.3893,2.4008,2.4021,2.3867,2.3866,2.3865,0,2.3766,2.3802,2.3844,2.3851,2.3857,2.3877,2.388,2.3886,2.3899,2.3914,2.3922,2.394,2.395,2.3965,2.3951,2.3923,2.4,2.3958,2.3998,2.3998,2.4016,2.4016,2.4137,2.4021,2.4021,2.4021,2.402,0,2.3856,2.3895,2.3879,2.3906,2.3949,2.3931,2.3975,2.3974,2.398,2.4005,2.3979,2.4003,2.3983,2.4005,2.3995,2.4036,2.404,2.4037,2.4034,2.4041,2.4041,2.4049,2.4044,2.4024,2.4023,2.4022,2.4022,0,2.3949,2.394,2.3985,2.3987,2.3988,2.402,2.4022,2.4046,2.404,2.4073,2.4079,2.407,2.4095,2.4083,2.4109,2.4102,2.4155,2.4143,2.4153,2.4151,2.4192,2.4189,2.4324,2.4341,2.4212,2.4214,2.4215,0,2.4008,2.4039,2.4044,2.406,2.4066,2.4091,2.4105,2.4088,2.4103,2.4115,2.4138,2.4161,2.4179,2.4221,2.4216,2.4236,2.4226,2.4272,2.4229,2.4235,2.4229,2.4228,2.4232,2.4281,2.4283,2.4284,2.4285,0,2.4115,2.4109,2.4131,2.4151,2.4169,2.4184,2.4196,2.421,2.4194,2.4212,2.4239,2.4253,2.428,2.4303,2.4321,2.4323,2.4302,2.4298,2.4309,2.4317,2.4322,2.4321,2.4179,2.4295,2.4294,2.4294,2.4293,2.4293,2.4195,2.4221,2.423,2.4255,2.4262,2.4275,2.4299,2.4296,2.4318,2.434,2.4328,2.4359,2.4366,2.4388,2.4393,2.4417,2.4399,2.4413,2.4417,2.4422,2.4429,2.4316,2.4419,2.4419,2.4419,2.4419,2.4418,0,2.4302,2.4306,2.4329,2.4349,2.4368,2.4347,2.436,2.4378,2.4406,2.4415,2.4433,2.4464,2.4487,2.4484,2.4505,2.4525,2.4516,2.4531,2.453,2.4531,2.4442,2.4432,2.4538,2.4538,2.4538,2.4538,2.4538,2.4538,2.436,2.4404,2.4399,2.4446,2.445,2.4481,2.449,2.4502,2.4509,2.4545,2.4565,2.4563,2.4567,2.4589,2.4609,2.4607,2.4617,2.4637,2.4632,2.4549,2.4537,2.4526,2.4517,2.4638,2.4639,2.4719,2.472,2.472]}]]